Voltar ao catálogo

MOLNIYA 3-27

AtivoComunicaçõesHEO
NORAD 16393·PAYLOAD·🇷🇺 Russia

Lançado Dec 24, 1985 de Plesetsk Cosmodrome

Loading…

Próximas Passagens (próximas 24 horas)

TLE

AtualizadoSource: Space-Track

Época: Sep 9, 2026, 20:43 UTC

1 16393U 85117A   26252.86370023  .00000117  00000-0 -71667-2 0  9999
2 16393  61.9256 211.9399 7111296 253.0913  23.4957  2.12409016307002

Acompanhe MOLNIYA 3-27 em tempo real com AllMySat

Download on the App Store